Wetbulb
33.18 32.00 32.07 31.00 30.98 31.68 31.69 30.67 29.95 28.68 29.03 26.58 25.98 23.81 23.39 23.14 21.26 21.86 22.23 25.22 25.59 26.27 27.09 30.11 30.12 30.79 30.00 30.20 30.46 30.32 29.78 30.05 26.83 27.35 20.98 29.87 29.54 29.07 29.97 24.72 25.59 27.73 27.08
30.36 30.02 29.74 29.38 28.25 28.01 28.30 28.07 28.05 27.80 26.43 26.18 24.35 24.23 23.89 24.17 23.33 23.53 22.55 24.03 24.12 24.60 24.36 28.90 29.00 30.22 29.32 29.82 29.75 29.21 29.25 29.98 28.35 26.74 28.97 29.38 28.70 20.29 20.25 19.80 26.71 28.84 26.66
28.90 28.48 27.66 27.63 27.33 27.12 27.28 26.91 26.18 26.86 26.51 26.01 26.19 25.62 25.37 25.44 25.36 25.70 26.27 25.36 26.28 27.91 28.10 28.18 28.51 28.66 28.32 29.02 29.18 28.89 29.30 29.87 29.38 27.98 27.57 28.85 28.73 21.59 21.51 22.81 23.19 23.85 28.01
27.87 27.61 26.25 26.18 26.07 25.31 25.31 26.21 26.66 26.37 26.00 26.01 25.15 26.08 26.67 26.50 26.81 27.85 27.73 27.35 27.54 27.68 28.07 28.31 28.64 28.75 28.60 28.73 28.63 28.58 28.70 28.18 28.42 27.71 27.33 27.64 28.05 27.34 18.41 20.87 23.19 23.63 25.53
24.12 26.10 25.13 25.12 25.58 25.76 25.45 24.65 24.77 25.11 25.33 25.32 24.99 25.32 25.68 26.94 27.86 27.24 27.55 27.06 26.77 26.81 27.54 28.30 28.77 29.14 30.46 30.38 28.93 28.11 27.57 26.85 26.71 26.23 25.68 25.92 25.85 24.32 19.45 19.40 21.25 21.28 22.68
23.31 22.42 21.89 22.32 22.10 21.43 23.55 23.20 23.50 23.48 23.21 22.98 22.91 23.91 24.84 26.98 29.16 30.42 28.73 26.78 26.90 26.74 26.31 27.20 28.51 29.15 30.28 31.79 32.37 31.36 28.92 25.74 24.20 24.20 24.35 23.73 24.26 21.30 18.92 18.69 16.03 16.39 18.87
20.95 20.78 21.23 21.85 21.88 21.45 21.17 20.82 20.68 21.19 21.47 21.44 21.84 23.64 24.08 24.60 28.42 29.75 30.22 28.53 27.17 26.88 27.07 27.79 28.13 29.13 28.66 29.05 30.69 31.82 31.40 30.80 29.47 24.90 22.74 22.83 20.41 22.85 21.22 17.06 15.85 15.16 16.94
21.31 21.77 21.84 21.49 21.42 21.28 21.06 20.23 20.27 20.56 20.54 20.67 20.83 21.38 22.20 23.22 27.52 28.97 29.61 28.68 28.55 28.16 27.83 28.01 27.84 27.74 27.70 27.38 26.99 26.28 26.51 27.81 28.79 28.88 26.85 25.23 24.56 23.80 23.04 21.63 17.47 13.89 13.88
21.69 21.48 21.49 21.46 20.75 20.66 20.37 20.13 20.23 20.62 20.98 21.89 23.37 22.63 22.54 23.41 27.07 28.47 28.46 27.40 27.41 27.53 28.81 28.47 27.96 27.27 28.05 29.17 26.49 24.52 23.87 24.33 27.75 30.84 31.58 31.71 31.57 31.70 29.04 21.69 22.44 22.84 22.19
21.14 20.92 20.89 20.71 20.14 19.46 19.90 19.60 20.75 20.84 21.45 22.21 22.64 23.27 24.09 24.16 27.27 28.76 29.01 28.20 26.75 26.83 27.58 28.01 28.47 27.83 28.92 29.79 27.24 25.88 24.26 24.89 25.20 22.23 22.74 28.14 30.60 29.44 32.62 29.52 26.49 24.21 23.30
21.06 20.44 19.60 19.58 19.07 19.41 19.38 19.66 19.54 18.97 19.96 18.95 19.38 19.74 19.71 20.84 21.91 26.42 28.35 27.50 26.97 26.84 26.85 26.42 27.01 29.64 30.84 31.16 31.12 27.73 26.43 26.71 25.56 24.58 21.39 20.38 19.40 20.78 21.95 21.83 25.01 27.05 25.97
18.33 17.80 17.26 17.00 18.46 18.71 17.47 17.51 17.57 17.42 17.28 17.17 17.21 18.35 19.87 20.62 22.71 24.86 27.30 28.30 28.33 26.63 25.64 25.94 26.26 28.99 29.54 30.27 30.11 31.25 31.99 31.82 28.53 25.14 23.97 21.77 20.18 20.74 21.22 22.46 23.37 24.32 26.45
15.66 15.05 13.83 13.53 17.17 17.76 16.05 16.36 15.89 16.03 16.48 16.09 18.03 17.62 17.61 21.05 20.75 25.89 27.15 28.08 27.71 24.90 25.72 25.94 27.80 27.80 28.22 27.50 27.54 29.97 29.49 28.26 26.92 25.42 24.55 23.04 23.24 23.77 22.11 19.00 19.87 21.03 22.75
10.82 11.75 11.86 11.98 13.39 13.08 17.10 16.63 15.01 12.93 13.56 16.38 15.84 15.68 14.33 15.57 17.15 18.50 20.40 18.97 21.79 21.49 21.49 18.19 20.92 22.47 22.41 22.43 17.41 20.60 21.19 21.53 20.05 19.65 18.39 19.11 17.56 16.02 17.63 18.97 19.81 19.02 21.32
14.05 13.80 14.56 15.00 14.40 13.73 14.40 13.62 15.27 14.35 14.40 11.74 9.69 11.53 8.91 8.78 15.32 21.53 20.97 17.17 15.22 19.51 8.57 6.77 8.57 9.32 9.72 10.42 11.48 11.15 11.65 12.12 13.70 12.81 11.88 12.73 13.32 19.11 20.10 16.33 19.70 18.51 20.04
12.77 13.38 13.59 13.51 12.12 13.12 12.35 11.53 17.88 20.63 21.84 23.02 23.40 17.81 16.49 20.91 23.37 24.42 25.03 25.71 26.54 25.88 6.82 4.37 5.14 6.31 6.96 6.38 6.31 7.40 7.93 11.51 10.47 7.87 5.85 10.45 12.22 13.87 14.10 15.05 15.74 16.52 15.97
11.37 12.50 12.12 12.06 11.14 10.39 8.69 7.22 5.04 11.48 18.22 20.82 22.89 24.28 24.79 24.48 25.19 25.38 25.48 25.52 25.27 25.19 8.73 2.54 3.71 5.12 4.28 5.26 5.35 3.93 3.87 3.83 0.14 1.78 3.91 4.54 6.12 7.64 8.47 6.85 8.43 11.62 9.69
9.01 9.31 9.19 8.92 7.43 5.65 4.10 4.65 2.76 2.67 2.41 4.31 12.04 16.26 18.86 21.05 22.48 23.57 24.45 24.20 13.35 13.63 4.05 4.58 7.09 6.63 5.48 5.58 4.51 2.53 3.51 0.94 -0.36 2.55 -0.27 -1.05 -3.04 0.11 -0.98 0.40 2.25 3.69 3.23
7.06 6.34 6.51 6.19 5.41 5.33 4.19 3.56 1.58 -0.81 -0.18 0.60 -1.51 7.99 7.19 16.67 19.30 21.16 22.75 13.05 9.22 8.91 7.30 5.20 5.65 4.89 4.43 3.95 4.98 3.82 2.48 1.96 1.35 -0.53 -2.43 -1.50 -2.97 -3.44 -3.55 -4.64 -4.04 -0.07 1.56
7.81 8.30 6.84 4.69 3.20 2.32 2.29 -0.22 0.35 -0.71 0.29 1.47 2.03 2.43 -2.76 -3.56 -4.75 -4.13 -3.53 -3.50 -4.91 -2.22 0.24 1.32 2.11 -2.13 0.15 -0.01 0.43 -0.99 -2.20 -3.79 -2.66 -2.47 -0.43 -2.35 -3.66 -2.70 0.53 -2.56 -4.46 -3.82 -4.55
6.70 5.95 5.84 2.86 2.90 3.31 3.51 1.71 -0.01 -3.01 -1.36 -1.76 1.09 -0.21 12.29 0.56 1.76 0.81 0.83 -3.18 -0.98 -0.20 0.51 -2.93 -1.23 -0.41 -3.94 -3.65 -2.83 -2.84 -2.22 1.23 -1.12 0.24 0.09 -0.66 -2.88 -6.59 -0.27 -1.29 -1.50 -2.36 -2.85
1.75 1.81 -1.17 -0.24 0.62 -0.13 -1.29 -4.05 -5.47 -6.04 -4.30 -2.83 0.39 -3.79 13.80 8.89 1.01 -0.52 -0.88 -0.24 -0.37 -1.47 -0.38 -0.14 -0.90 -2.42 -1.13 -1.34 -1.07 -2.19 -2.68 -0.98 -3.05 -1.71 -0.22 -1.17 -1.75 -1.82 -3.54 -5.49 -4.08 -2.77 -3.62
-10.01 -9.88 -11.58 -12.44 -11.53 -9.59 -10.57 -8.92 -7.11 -5.87 -3.00 -2.13 -0.68 0.11 -4.56 -1.67 -0.82 -2.81 -1.02 -0.82 -2.33 -2.04 -3.26 -3.78 -1.31 -1.40 -5.17 -3.25 -2.05 1.64 1.34 0.19 -0.66 -0.30 -1.21 -1.70 -0.74 -1.32 -2.12 -1.69 -1.38 -2.59 -2.16
-13.12 -9.70 -7.21 -6.43 -8.18 -9.53 -7.52 -6.00 -5.23 -4.00 -1.94 -1.76 -4.14 -3.90 -1.28 -1.69 -3.53 -3.03 -2.27 -2.94 -3.41 -2.87 -4.20 -3.31 -3.00 -1.44 -1.33 -5.04 -4.86 -2.56 2.87 4.73 1.05 3.05 1.20 -2.18 -4.46 -5.45 -10.19 -10.88 -6.36 -3.32 -3.13
-11.64 -10.06 -9.03 -5.67 -6.71 -5.30 -6.39 -5.91 -4.94 -5.66 -4.02 -2.64 -1.32 -2.28 -1.90 -2.70 -3.52 -3.56 -2.00 -3.62 -3.44 -3.74 -4.17 -3.22 -2.00 -2.34 -2.78 -3.27 -1.19 0.29 -1.79 6.39 6.01 2.28 1.33 0.80 -0.57 -3.38 -7.25 -8.75 -8.89 -10.86 -7.81
-8.11 -8.03 -5.85 -5.88 -6.47 -5.73 -5.66 -4.45 -4.25 -3.91 -3.46 -2.49 -2.50 -2.24 -2.71 -3.34 -2.61 -2.36 -4.01 -4.84 -4.58 -4.25 -4.63 -4.07 -3.47 -2.63 -3.15 -1.95 -2.07 1.88 4.20 7.32 5.03 5.53 1.89 0.88 0.54 -0.22 -1.86 -2.03 -2.81 -7.04 -7.61
MSLP
1006.36 1007.18 1008.32 1009.42 1010.38 1011.17 1011.77 1012.58 1013.24 1014.00 1014.87 1015.68 1016.43 1017.04 1017.49 1017.81 1018.17 1018.46 1018.75 1019.08 1019.44 1019.50 1019.54 1019.74 1020.05 1020.32 1020.25 1020.39 1020.93 1021.11 1021.25 1021.42 1021.17 1021.09 1021.10 1020.92 1020.85 1020.79 1020.53 1020.44 1020.28 1020.20 1020.09
1006.67 1007.66 1008.70 1009.63 1010.67 1011.66 1012.25 1012.72 1013.35 1014.07 1015.01 1015.60 1016.26 1016.96 1017.46 1017.80 1018.03 1018.27 1018.59 1018.76 1019.07 1019.19 1019.26 1019.58 1019.77 1019.98 1019.99 1019.97 1020.56 1020.66 1020.67 1021.19 1020.85 1020.80 1020.70 1020.67 1021.00 1021.10 1021.05 1020.83 1019.90 1019.82 1019.88
1007.24 1008.22 1009.51 1010.26 1011.17 1011.86 1012.73 1013.27 1013.58 1014.17 1014.99 1015.71 1016.11 1016.77 1017.27 1017.57 1017.79 1017.98 1018.12 1018.38 1018.45 1018.52 1018.72 1019.24 1019.56 1019.52 1019.75 1019.65 1020.01 1020.11 1020.37 1020.91 1020.57 1020.54 1020.51 1020.41 1020.67 1020.99 1021.05 1020.59 1019.98 1019.73 1019.45
1008.15 1008.83 1009.87 1010.74 1011.55 1012.38 1012.89 1013.41 1013.89 1014.32 1014.99 1015.56 1015.89 1016.39 1016.78 1017.18 1017.46 1017.64 1017.77 1017.92 1018.00 1018.01 1018.23 1018.70 1018.97 1019.07 1019.26 1019.17 1019.42 1019.71 1019.63 1020.17 1020.26 1020.29 1019.92 1020.27 1020.35 1020.67 1021.09 1021.18 1020.46 1019.78 1019.50
1008.88 1009.66 1010.14 1010.78 1011.71 1012.57 1013.21 1013.52 1013.96 1014.48 1014.90 1015.31 1015.70 1016.06 1016.46 1016.69 1017.01 1017.23 1017.33 1017.35 1017.60 1017.81 1017.85 1018.08 1018.51 1018.50 1018.75 1018.82 1018.78 1019.44 1019.34 1019.63 1019.78 1019.76 1019.90 1019.72 1019.93 1020.48 1020.82 1020.84 1020.81 1020.32 1019.70
1009.30 1010.14 1010.58 1011.09 1011.97 1012.75 1013.33 1013.69 1014.14 1014.57 1014.79 1015.16 1015.68 1016.06 1016.12 1016.14 1016.40 1016.51 1016.78 1016.98 1017.04 1017.33 1017.46 1017.68 1017.88 1017.93 1018.04 1018.34 1018.18 1018.65 1019.08 1019.30 1019.34 1019.23 1019.57 1019.65 1019.52 1019.96 1020.20 1020.47 1020.64 1020.72 1020.49
1010.14 1010.59 1010.97 1011.41 1012.13 1012.68 1013.29 1013.78 1014.10 1014.52 1014.92 1015.39 1015.73 1015.75 1015.74 1015.84 1015.91 1015.97 1016.12 1016.27 1016.59 1016.65 1016.88 1016.94 1017.18 1017.32 1017.61 1017.86 1017.83 1018.01 1018.26 1018.67 1018.70 1018.87 1018.93 1019.14 1019.38 1019.45 1019.92 1020.02 1020.20 1020.29 1020.33
1010.50 1011.07 1011.47 1011.58 1011.98 1012.60 1013.28 1013.79 1014.12 1014.57 1014.91 1015.09 1015.26 1015.57 1015.63 1015.54 1015.48 1015.53 1015.63 1015.74 1015.98 1016.17 1016.41 1016.35 1016.49 1016.79 1017.10 1017.40 1017.46 1017.79 1017.76 1018.13 1018.07 1017.95 1018.10 1018.31 1018.37 1018.52 1018.70 1019.24 1019.80 1019.95 1019.82
1010.90 1011.33 1011.61 1011.92 1012.28 1012.86 1013.19 1013.60 1013.97 1014.35 1014.55 1014.67 1014.66 1014.85 1015.00 1014.97 1014.99 1014.92 1015.08 1015.30 1015.45 1015.61 1015.83 1015.96 1016.08 1016.38 1016.55 1016.90 1016.87 1017.51 1017.54 1017.55 1017.76 1017.40 1017.23 1017.39 1017.53 1017.52 1017.83 1018.43 1018.94 1019.82 1019.61
1011.14 1011.73 1011.80 1012.11 1012.54 1012.98 1013.14 1013.55 1013.91 1014.19 1014.03 1014.15 1014.29 1014.36 1014.37 1014.50 1014.46 1014.37 1014.29 1014.65 1014.92 1014.87 1015.16 1015.21 1015.31 1015.72 1015.91 1016.19 1016.35 1016.81 1016.62 1016.69 1017.08 1017.31 1016.86 1016.53 1016.41 1016.61 1016.66 1016.91 1017.53 1017.92 1018.76
1011.74 1011.89 1012.26 1012.63 1012.76 1013.17 1013.07 1013.57 1013.74 1013.95 1013.93 1014.01 1014.20 1014.38 1014.27 1014.29 1014.29 1014.22 1014.01 1014.20 1014.42 1014.49 1014.62 1014.80 1014.85 1014.86 1015.13 1015.46 1015.58 1015.91 1015.75 1015.81 1016.11 1016.48 1016.59 1016.48 1016.44 1016.49 1016.75 1016.77 1016.66 1016.82 1017.02
1012.08 1012.33 1012.81 1013.05 1013.31 1013.17 1013.33 1013.69 1013.86 1013.93 1014.11 1014.08 1013.94 1014.20 1014.07 1013.99 1013.94 1013.87 1013.94 1013.88 1014.15 1014.25 1014.30 1014.43 1014.42 1014.58 1014.66 1014.72 1014.96 1015.23 1015.02 1014.87 1015.06 1015.47 1015.88 1016.13 1016.39 1016.45 1016.37 1016.43 1016.26 1016.21 1016.02
1012.51 1012.91 1013.46 1013.60 1013.66 1013.26 1013.44 1013.75 1013.91 1013.76 1013.93 1013.96 1014.12 1014.17 1014.15 1013.75 1013.81 1013.81 1013.93 1013.98 1013.86 1014.21 1014.09 1014.25 1014.35 1014.57 1014.50 1014.63 1014.86 1014.95 1014.66 1014.57 1014.66 1014.93 1015.26 1015.32 1015.37 1015.46 1015.57 1015.89 1015.86 1015.86 1015.73
1013.05 1013.64 1013.76 1013.44 1013.61 1013.83 1013.82 1013.92 1013.93 1013.97 1013.96 1014.01 1014.26 1014.24 1014.26 1014.14 1014.09 1014.04 1014.09 1013.95 1014.05 1014.09 1014.30 1014.41 1014.69 1014.91 1014.89 1014.91 1014.90 1014.97 1014.80 1014.82 1014.73 1014.92 1015.22 1015.11 1015.01 1015.48 1015.57 1015.49 1015.58 1015.53 1015.58
1013.81 1014.07 1013.98 1013.89 1013.93 1013.97 1014.25 1013.86 1014.11 1014.11 1013.99 1014.05 1014.17 1014.27 1014.35 1014.42 1014.07 1013.85 1013.93 1013.87 1013.92 1013.89 1014.39 1014.79 1015.19 1015.36 1015.38 1015.47 1015.45 1015.12 1014.86 1014.68 1014.86 1015.16 1015.44 1015.52 1015.31 1015.13 1015.11 1014.97 1014.98 1015.15 1015.22
1013.06 1013.01 1013.29 1013.59 1013.75 1013.86 1013.82 1014.12 1013.94 1013.72 1013.61 1013.61 1013.74 1013.91 1013.88 1013.69 1013.45 1013.34 1013.31 1013.18 1013.17 1013.38 1014.21 1014.88 1015.33 1015.45 1015.62 1015.68 1015.76 1015.53 1015.26 1015.18 1015.20 1015.34 1015.70 1015.53 1015.35 1015.34 1015.08 1015.04 1014.87 1014.96 1015.13
1013.11 1013.07 1013.14 1013.40 1013.69 1013.94 1014.18 1014.45 1014.48 1013.98 1014.01 1013.94 1013.65 1013.52 1013.05 1012.77 1012.72 1012.73 1012.80 1012.86 1012.94 1012.98 1013.54 1014.39 1014.84 1015.23 1015.36 1015.45 1015.48 1015.48 1015.46 1015.39 1015.20 1015.38 1015.75 1015.56 1015.51 1015.51 1015.29 1015.22 1015.25 1015.30 1015.23
1013.25 1013.42 1013.53 1013.65 1014.05 1014.48 1014.81 1014.98 1015.19 1015.44 1014.98 1014.31 1013.73 1013.47 1013.23 1012.95 1012.70 1012.55 1012.43 1012.34 1012.47 1012.79 1013.41 1013.99 1014.36 1014.67 1014.77 1014.88 1014.97 1015.06 1015.03 1015.18 1015.52 1015.43 1015.58 1015.55 1015.47 1015.40 1015.43 1015.54 1015.44 1015.51 1015.54
1013.37 1013.58 1013.82 1014.02 1014.26 1014.48 1014.74 1014.92 1014.96 1014.91 1014.79 1014.48 1014.31 1013.57 1013.35 1012.95 1012.59 1012.39 1012.29 1012.54 1012.79 1013.11 1013.39 1013.70 1013.95 1014.10 1014.11 1014.20 1014.17 1014.35 1014.51 1014.68 1014.74 1015.09 1015.10 1015.17 1015.31 1015.41 1015.40 1015.40 1015.38 1015.29 1015.19
1013.30 1013.56 1013.81 1013.89 1014.07 1014.25 1014.34 1014.50 1014.56 1014.65 1014.51 1014.27 1014.09 1013.80 1013.64 1013.48 1013.04 1012.95 1013.03 1013.10 1013.10 1013.15 1013.31 1013.49 1013.53 1013.49 1013.51 1013.58 1013.61 1013.76 1014.01 1014.20 1014.37 1014.57 1014.48 1014.62 1014.76 1014.97 1015.03 1015.13 1015.23 1015.35 1015.21
1013.21 1013.40 1013.50 1013.73 1013.87 1013.88 1013.95 1014.11 1014.18 1014.26 1014.24 1014.04 1013.66 1013.41 1012.76 1012.81 1012.88 1012.82 1012.69 1012.73 1012.83 1012.81 1012.92 1012.93 1012.84 1012.89 1012.88 1013.02 1013.15 1013.28 1013.35 1013.36 1013.46 1013.60 1013.76 1013.89 1014.10 1014.53 1014.25 1014.44 1014.60 1014.62 1014.78
1013.09 1013.18 1013.33 1013.47 1013.46 1013.59 1013.66 1013.71 1013.77 1013.81 1013.71 1013.49 1013.01 1012.66 1012.01 1012.06 1012.17 1012.23 1012.26 1012.23 1011.93 1011.95 1011.94 1012.00 1012.09 1012.11 1012.15 1012.28 1012.37 1012.47 1012.59 1012.62 1012.71 1012.81 1012.85 1012.96 1013.22 1013.45 1013.66 1013.76 1013.91 1014.25 1014.32
1013.22 1013.13 1013.08 1013.09 1013.08 1013.12 1013.25 1013.24 1013.29 1013.25 1013.01 1012.73 1012.45 1012.15 1011.90 1011.68 1011.65 1011.66 1011.63 1011.41 1011.36 1011.34 1011.33 1011.43 1011.49 1011.47 1011.50 1011.51 1011.43 1011.43 1011.50 1011.51 1011.59 1011.66 1011.84 1012.04 1012.30 1012.48 1012.76 1013.10 1013.30 1013.64 1013.80
1012.91 1012.67 1012.66 1012.59 1012.62 1012.69 1012.69 1012.60 1012.45 1012.25 1012.07 1011.85 1011.64 1011.48 1011.33 1011.09 1010.99 1010.98 1010.84 1010.73 1010.72 1010.68 1010.64 1010.68 1010.73 1010.75 1010.77 1010.79 1010.67 1010.63 1010.57 1010.46 1010.59 1010.64 1010.81 1011.04 1011.41 1011.63 1012.22 1012.43 1012.61 1012.84 1013.04
1011.99 1011.89 1011.87 1011.74 1011.65 1011.63 1011.57 1011.49 1011.37 1011.22 1011.08 1010.92 1010.72 1010.55 1010.38 1010.29 1010.23 1010.11 1009.92 1009.91 1009.94 1009.97 1009.88 1009.86 1009.87 1009.83 1009.85 1009.84 1009.76 1009.71 1009.77 1009.72 1009.74 1009.89 1010.08 1010.27 1010.52 1010.95 1011.50 1011.77 1011.89 1012.16 1012.44
1010.75 1010.69 1010.60 1010.52 1010.51 1010.46 1010.46 1010.36 1010.17 1010.04 1009.92 1009.77 1009.67 1009.58 1009.51 1009.43 1009.33 1009.24 1009.20 1009.27 1009.26 1009.16 1009.09 1009.09 1009.09 1008.98 1008.95 1008.88 1008.88 1008.91 1008.92 1008.91 1008.96 1009.01 1009.32 1009.64 1009.84 1010.11 1010.54 1010.89 1011.27 1011.57 1011.79
Wind_Speed
12 10 11 8 7 7 8 7 7 6 7 7 7 6 6 6 5 4 4 5 5 4 3 4 5 5 3 3 3 3 3 4 5 2 2 1 2 3 4 3 3 4 4
10 10 9 9 7 6 6 7 7 8 5 7 6 6 5 5 5 6 6 5 5 5 4 6 7 5 6 5 5 6 5 5 4 7 2 1 1 2 4 4 3 2 3
10 11 8 8 7 7 6 5 6 7 6 5 6 6 6 6 6 6 6 6 6 6 6 6 6 6 6 5 6 6 5 5 5 5 4 2 2 0 3 3 3 2 2
9 9 9 7 6 5 5 5 5 5 6 5 5 6 6 6 6 6 6 6 6 5 6 7 6 7 7 7 7 7 5 5 5 5 4 4 2 1 1 2 4 1 2
8 7 7 7 6 5 4 4 4 5 5 5 5 4 5 5 5 6 6 6 6 6 6 7 7 8 12 10 5 6 6 5 5 6 6 4 4 2 3 1 2 2 3
8 6 6 6 6 5 4 4 4 4 4 4 4 6 6 4 11 14 9 6 7 7 6 7 7 8 11 16 16 14 10 7 9 7 7 8 8 3 2 2 2 1 3
5 5 6 6 5 4 4 3 3 3 3 4 5 5 7 5 13 15 14 6 7 7 7 7 6 5 7 6 10 14 15 18 19 8 7 7 3 5 3 2 3 3 4
6 6 6 6 5 5 4 4 3 4 5 5 5 6 5 5 13 13 13 6 5 7 8 7 7 6 6 7 6 7 7 8 11 10 11 9 8 5 6 5 4 2 2
5 5 4 4 5 5 5 4 3 3 4 5 4 6 7 7 12 14 13 7 7 7 6 7 7 7 10 13 7 8 9 10 11 19 21 18 18 17 11 3 4 4 6
5 4 4 4 3 3 3 4 3 3 4 3 4 4 5 4 9 12 10 4 7 5 7 8 13 10 14 16 9 8 10 9 7 5 5 12 15 12 18 10 6 6 7
4 4 4 3 3 3 3 3 3 3 2 2 2 3 2 4 5 10 12 5 4 3 5 4 5 13 15 17 18 10 11 8 11 9 6 4 3 3 4 3 6 8 8
4 4 3 2 2 3 4 2 1 2 3 2 1 2 2 4 7 7 10 11 8 4 3 3 3 10 12 13 12 14 15 12 6 7 6 5 4 4 5 6 7 7 7
3 3 3 2 2 3 2 2 2 1 1 1 2 1 1 1 0 3 2 2 5 3 2 1 3 4 6 4 8 10 9 5 6 6 5 5 4 5 4 2 4 5 6
2 2 2 2 1 0 1 1 1 1 1 2 2 1 0 1 2 1 1 1 1 2 1 2 2 4 6 7 3 5 1 2 2 2 2 2 1 1 3 3 3 3 4
5 5 3 3 2 1 2 1 2 2 3 2 2 2 2 2 3 5 5 2 3 4 4 2 1 1 2 2 3 2 2 2 2 2 2 2 3 3 5 3 3 3 5
2 2 1 1 2 1 0 1 5 8 8 10 11 7 4 10 9 9 10 11 10 9 3 2 2 2 2 2 2 3 2 1 1 1 1 2 2 2 1 1 1 2 3
1 0 1 1 0 1 2 1 3 5 7 9 10 10 11 10 12 12 12 12 12 11 2 3 3 3 3 3 3 3 3 2 1 2 2 3 2 2 2 1 1 1 2
2 3 2 2 2 1 2 3 3 3 3 3 4 4 8 11 12 12 12 11 3 4 2 3 4 4 4 4 3 3 3 2 3 3 3 3 3 3 2 3 3 3 3
3 2 3 3 3 4 3 3 3 3 4 4 3 5 4 10 12 13 14 3 3 4 3 3 4 4 4 4 4 4 4 4 4 4 3 4 4 3 3 3 3 4 4
4 7 5 3 3 3 3 3 3 4 4 5 4 4 2 2 2 2 2 2 2 4 3 4 4 3 4 4 3 3 3 3 4 4 5 4 4 4 4 4 4 4 4
4 4 6 4 4 4 4 5 4 3 4 4 6 4 10 4 5 5 4 4 5 5 5 4 4 4 3 4 4 4 4 5 4 5 5 5 4 4 6 4 4 4 4
2 2 2 4 3 3 4 3 3 4 5 5 6 5 16 6 4 4 4 5 5 5 4 4 4 4 5 5 5 5 5 6 4 5 5 5 5 6 4 3 4 4 3
2 3 3 3 3 3 3 4 4 5 6 6 6 6 4 5 5 5 5 5 4 4 4 4 5 4 4 4 4 5 6 6 6 5 5 5 6 6 6 6 5 4 4
3 4 5 5 4 5 5 6 6 8 7 7 5 6 6 6 6 6 6 5 5 5 4 5 5 7 5 4 4 5 6 6 4 7 8 5 5 5 4 3 4 5 3
4 5 5 6 5 6 5 6 6 5 6 6 7 6 6 6 5 6 6 5 5 5 6 5 5 7 9 10 9 7 7 11 8 7 5 6 6 7 4 3 4 3 4
5 6 6 5 6 6 6 7 7 7 7 7 7 6 6 5 6 6 5 5 5 5 6 5 6 10 10 8 8 9 10 11 9 10 6 5 6 5 5 5 7 3 4
Wind_Direction
141 131 132 128 125 134 143 142 145 128 141 147 155 153 160 160 164 155 170 169 173 174 151 183 203 193 193 179 195 206 223 218 246 266 246 308 314 327 321 285 276 283 279
119 117 117 116 117 126 139 142 141 142 142 154 151 160 169 177 177 181 187 187 191 188 182 204 213 205 202 189 205 213 208 225 227 253 219 230 272 313 273 288 272 248 257
110 112 111 116 125 129 131 131 132 137 149 154 157 175 182 187 184 190 187 192 197 198 194 207 214 200 209 201 204 210 212 223 221 240 259 208 215 56 322 298 276 290 251
103 113 115 112 112 115 125 136 141 143 155 171 170 180 178 181 188 193 195 200 204 202 202 208 210 207 213 202 205 214 196 208 222 236 235 243 226 240 3 274 304 287 284
104 117 127 118 112 123 136 142 144 161 172 170 172 179 186 189 196 198 200 200 207 212 207 208 216 212 221 217 206 209 192 214 225 231 242 228 223 211 202 247 258 299 282
122 122 113 116 128 142 150 156 161 170 164 159 190 201 194 193 215 223 204 209 207 211 214 214 217 215 228 236 228 218 212 208 225 221 232 235 227 186 188 199 202 28 314
97 111 130 130 137 139 136 140 151 165 150 189 201 204 206 202 229 234 238 205 209 211 214 212 210 207 207 221 243 245 240 227 225 216 224 219 211 197 182 193 210 185 221
124 139 146 137 130 136 152 175 175 176 196 200 205 211 219 224 234 238 239 236 221 218 216 210 206 192 191 206 213 230 238 246 241 234 221 228 225 209 189 189 205 210 306
129 128 119 130 139 155 165 166 170 187 201 205 206 199 207 223 233 232 233 233 236 231 215 210 207 213 207 230 210 222 237 246 256 251 251 245 240 239 226 154 207 264 283
130 140 117 118 130 164 155 171 178 205 204 200 227 213 209 216 241 240 234 211 226 216 216 214 210 213 220 223 225 228 237 239 225 247 263 254 248 245 243 219 204 214 234
108 107 129 154 151 179 152 172 175 192 194 188 226 259 242 233 244 250 252 231 224 217 211 206 207 230 238 236 237 221 229 222 229 227 233 240 254 246 244 233 204 216 227
113 110 116 134 194 154 149 163 184 174 193 222 223 275 244 230 223 244 243 245 234 222 203 189 198 243 256 258 260 260 258 250 210 212 214 224 227 230 241 240 236 229 235
105 131 175 154 188 141 149 180 198 162 195 219 244 230 282 23 242 250 349 100 64 69 51 225 279 304 305 329 308 292 273 243 233 230 220 208 203 218 219 220 239 236 241
85 194 188 137 155 26 280 222 213 193 207 218 225 205 247 352 344 260 212 69 45 93 37 18 306 314 312 295 319 287 258 238 202 192 214 221 211 185 223 205 226 208 229
174 184 181 169 171 168 222 200 229 228 196 196 225 192 174 259 244 238 216 220 209 226 115 64 44 26 348 329 314 294 287 209 170 202 189 228 228 226 241 210 226 204 211
165 149 155 165 172 189 187 293 273 260 255 246 234 205 234 234 249 255 251 259 255 232 88 164 222 217 224 237 261 291 315 293 238 194 210 174 205 227 248 289 231 197 200
248 139 135 136 308 336 4 6 322 336 297 272 265 265 268 263 255 254 256 256 260 265 149 201 200 202 226 228 231 214 241 229 190 200 208 214 203 222 200 219 259 240 262
218 237 226 199 199 205 215 225 207 216 245 288 296 292 290 283 277 275 272 276 293 288 175 201 225 212 219 224 221 213 230 216 225 227 218 221 208 187 197 227 223 196 203
210 221 212 211 211 219 216 226 225 231 239 248 308 300 294 294 293 284 276 263 226 221 222 233 232 229 224 217 229 225 220 224 216 205 219 203 208 178 226 224 218 217 185
226 231 217 212 215 224 227 228 239 239 251 255 252 248 273 28 337 280 271 259 254 250 223 229 246 230 231 223 229 219 222 218 226 228 237 210 205 195 216 208 209 206 211
207 205 208 206 217 221 223 226 228 226 243 247 254 228 255 207 233 238 248 229 229 233 242 228 227 231 218 223 224 227 227 244 214 220 220 223 189 204 216 208 208 207 205
210 216 198 222 213 223 230 219 221 231 240 249 264 256 275 275 252 229 228 237 233 225 222 227 237 220 213 211 216 222 227 234 220 220 226 210 206 215 196 187 191 198 185
215 229 238 245 222 231 243 231 232 232 242 242 246 254 237 245 244 237 244 243 236 237 232 224 235 241 224 226 214 223 233 233 220 212 215 207 211 208 197 203 196 193 190
223 228 232 234 222 225 228 234 230 229 238 241 230 231 240 238 232 237 235 231 235 242 227 225 225 235 243 234 224 221 240 248 214 226 212 200 204 191 166 166 180 197 185
224 229 225 234 225 229 225 229 233 228 232 233 241 233 238 234 238 242 242 233 234 232 236 228 228 235 240 243 245 237 228 250 246 217 208 206 203 191 180 176 167 173 170
234 232 239 234 235 231 229 237 237 231 234 235 232 233 230 230 237 240 234 234 239 236 231 225 228 232 239 241 238 242 242 241 235 227 198 198 202 195 182 186 187 173 170